Weather in Oktyabrskoye

Russia / Republic of Crimea     45°21′46″N   36°22′03″E
temp.,
°C
wind,
m/s
gust,
m/s
humid.,
%
clouds,
%
prec.,
mm/h
press.,
hPa
HPBL,
m
26 july, mon
mon2600:00+25ne612704 0.0 1015313
03:00+25ne487027 0.0 1015240
06:00+24ne510735 0.0 1015293
09:00+27ene711517 0.0 1015649
12:00+32ne91233100 0.0 10151569
15:00+31nne9113881 0.0 10141338
18:00+30ne9124331 0.0 1014668
21:00+27ne7145877 0.0 1015414
27 july, tue
tue2700:00+27ne71354100 0.0 1015373
03:00+26ne61260100 0.0 1015314
06:00+25nne6126217 0.0 1015304
09:00+29ne794239 0.0 1016644
12:00+31ne79340 0.0 10161090
15:00+31ne78390 0.0 10161610
18:00+29ene78400 0.0 1017988
21:00+25ese69550 0.0 1018396
28 july, wed
wed2800:00+22e58570 0.0 1019255
03:00+21ene59640 0.0 1018274
06:00+21e48610 0.0 1019253
09:00+26ene56440 0.0 1018657
12:00+29ene56370 0.0 10181068
15:00+30ne56300 0.0 10171440
18:00+29n55340 0.0 1016560
21:00+23nne35630 0.0 101696
29 july, thu
thu2900:00+23ne22600 0.0 101531
03:00+22nw33660 0.0 101542
06:00+22nnw33700 0.0 101558
09:00+29ne34420 0.0 1014745
12:00+31ese44310 0.0 10141466
15:00+33e44230 0.0 10131742
18:00+31nne55270 0.0 1012715
21:00+25n12410 0.0 101211
30 july, fri
fri3000:00+24wsw11440 0.0 101211
03:00+23nw22450 0.0 101215
06:00+24n22570 0.0 101219
09:00+30ene22410 0.0 1012723
12:00+33e32340 0.0 10111694
15:00+33e22350 0.0 10102025
18:00+32se22380 0.0 1010980
21:00+26w36520 0.0 101099